Regional Weather Roundup
Issued by NWS

Home | Current Version | Previous Version | Graphics & Text | Print | Product List | Glossary On
Versions: 1 2 3 4 5 6 7 8 9 10 11 12 13 14 15 16 17 18 19 20 21 22 23 24 25 26 27 28 29 30 31 32 33 34 35 36 37 38 39 40 41 42 43 44 45 46 47 48 49 50
000
ASUS43 KOAX 031902
RWRNE

WEATHER ROUNDUP FOR NEBRASKA
NATIONAL WEATHER SERVICE OMAHA NE
200 PM CDT SUN MAY 03 2015

NOTES: SATELLITE DATA IS BEING USED TO AUGMENT CLOUD COVER ABOVE
       12000 FEET.
       "FAIR" INDICATES FEW OR NO CLOUDS BELOW 12,000 FEET WITH NO
       SIGNIFICANT WEATHER AND/OR OBSTRUCTIONS TO VISIBILITY.

  * THESE STATIONS DO NOT REPORT WEATHER SUCH AS RAIN...SNOW OR FOG.

NEZ001>004-019>022-054>056-032000-
NEBRASKA PANHANDLE

CITY           SKY/WX    TMP DP  RH WIND       PRES   REMARKS
SCOTTSBLUFF    MOSUNNY   71  39  31 E13G22    29.96F
ALLIANCE       SUNNY     69  40  34 NE17G26   29.95S
CHADRON        MOSUNNY   68  42  38 NE13G25   29.98S
KIMBALL        MOSUNNY   68  38  33 N14G21    29.97S
SIDNEY         SUNNY     71  42  35 N13G21    29.96R
$$

NEZ057>060-069>072-079>082-032000-
SOUTHWEST NEBRASKA

CITY           SKY/WX    TMP DP  RH WIND       PRES   REMARKS
NORTH PLATTE   SUNNY     78  48  34 N15G24    29.82S
IMPERIAL       SUNNY     81  41  24 N18G24    29.85S
MCCOOK         SUNNY     87  43  21 W13       29.80F
$$

NEZ005>010-023>029-035>040-094-032000-
NORTH CENTRAL NEBRASKA

CITY           SKY/WX    TMP DP  RH WIND       PRES   REMARKS
VALENTINE      SUNNY     71  37  28 NE26G35   29.90R
AINSWORTH      SUNNY     73  42  32 NE25G31   29.87S
BROKEN BOW     SUNNY     85  44  23 N14G23    29.78S
ORD            MOSUNNY   84  46  26 NW13G22   29.75S
$$

NEZ041-046>049-061>064-073>077-083>087-032000-
SOUTH CENTRAL NEBRASKA

CITY           SKY/WX    TMP DP  RH WIND       PRES   REMARKS
GRAND ISLAND   SUNNY     88  46  23 SW13G25   29.74F
AURORA         SUNNY     88  44  21 S6        29.73F
HASTINGS       SUNNY     89  42  19 SW12G21   29.74F
KEARNEY *      SUNNY     88  46  23 SW14      29.76F
$$

NEZ011>018-030>034-042>045-032000-
NORTHEAST NEBRASKA

CITY           SKY/WX    TMP DP  RH WIND       PRES   REMARKS
NORFOLK        MOSUNNY   83  56  39 CALM      29.73F
ALBION         MOSUNNY   82  49  31 CALM      29.74F
BLAIR          MOSUNNY   79  59  49 S7        29.75F
COLUMBUS *     MOSUNNY   81  57  44 CALM      29.76S
FREMONT        MOSUNNY   82  60  46 S10       29.74F
TEKAMAH        SUNNY     84  60  44 S15G21    29.72F
$$

NEZ050>053-065>068-078-088>093-032000-
SOUTHEAST NEBRASKA

CITY           SKY/WX    TMP DP  RH WIND       PRES   REMARKS
LINCOLN        PTSUNNY   77  65  66 SE8       29.74S
OMAHA EPPLEY   PTSUNNY   81  59  47 S14       29.74F
BEATRICE       FAIR      82  58  43 SW8G18    29.75F
FALLS CITY     MOSUNNY   78  58  49 S12G20    29.77F
NEBRASKA CITY  PTSUNNY   82  53  35 SW10G20   29.77R
PLATTSMOUTH    PTSUNNY   77  55  46 S6        29.77S
$$

NEZ044-045-051>053-067-032000-
OMAHA AREA

CITY           SKY/WX    TMP DP  RH WIND       PRES   REMARKS
OMAHA EPPLEY   PTSUNNY   81  59  47 S14       29.74F
BLAIR          MOSUNNY   79  59  49 S7        29.75F
FREMONT        MOSUNNY   82  60  46 S10       29.74F
OFFUTT AFB     MOSUNNY   78  60  52 S9        29.74F
PLATTSMOUTH    PTSUNNY   77  55  46 S6        29.77S
WAHOO          FAIR      79  55  43 S5        29.74F
$$


USA.gov is the U.S. government's official web portal to all federal, state and local government web resources and services.